Location: Newark
(13.8117°N, 3.6025°W)
Time: 07:24:47
(UTC+00:00)

Explorer 11/Cluster Stage 4 - Pass Details

Date: 26 August 2019
Orbit: 467 x 1260 km, 28.8° (Epoch: 19 September)

Event Time Altitude Azimuth Distance (km) Brightness Sun altitude
Rises 07:07:04 0° 242° (WSW) 3,365 9.2 14.6°
Reaches altitude 10° 07:09:23 10° 241° (WSW) 2,545 8.7 15.2°
Maximum altitude 07:15:40 88° 154° (SSE) 1,036 7.5 16.7°
Drops below altitude 10° 07:23:23 10° 64° (ENE) 3,083 11.2 18.6°
Sets 07:26:26 0° 64° (ENE) 4,117 11.6 19.3°
